| time (UTC) | temp F | wind direction | speed MPH | gust MPH | rain 1hr in | rain 24hr in | rain mn in | humidity % | barometer mb |
| 20260503021529 | 52 | 188 | 0.0 | 2.0 | 0.00 | 0.00 | 0.00 | 58 | 1019.5 |
| 20260503021521 | 64 | 150 | 0.0 | 0.0 | 0.00 | 0.00 | 0.00 | 79 | 1010.0 |
| 20260503020035 | 54 | 188 | 0.0 | 2.0 | 0.00 | 0.00 | 0.00 | 56 | 1019.4 |
| 20260503020021 | 65 | 157 | 0.0 | 0.0 | 0.00 | 0.00 | 0.00 | 77 | 1009.9 |
| 20260503014527 | 56 | 189 | 0.0 | 1.0 | 0.00 | 0.00 | 0.00 | 52 | 1019.4 |
| 20260503014520 | 66 | 138 | 0.0 | 0.0 | 0.00 | 0.00 | 0.00 | 76 | 1009.9 |
| 20260503013031 | 66 | 159 | 0.0 | 0.0 | 0.00 | 0.00 | 0.00 | 75 | 1009.9 |
| 20260503013026 | 58 | 233 | 0.0 | 1.0 | 0.00 | 0.00 | 0.00 | 46 | 1019.4 |
| 20260503011525 | 59 | 199 | 0.0 | 2.0 | 0.00 | 0.00 | 0.00 | 42 | 1019.4 |
| 20260503011520 | 67 | 162 | 0.0 | 0.0 | 0.00 | 0.00 | 0.00 | 75 | 1010.0 |
| 20260503010024 | 61 | 199 | 0.0 | 4.0 | 0.00 | 0.00 | 0.00 | 37 | 1019.4 |
| 20260503010019 | 67 | 112 | 0.0 | 0.0 | 0.00 | 0.00 | 0.00 | 73 | 1010.0 |
| 20260503004524 | 62 | 189 | 1.0 | 4.0 | 0.00 | 0.00 | 0.00 | 34 | 1019.4 |
| 20260503004519 | 67 | 180 | 0.0 | 0.0 | 0.00 | 0.00 | 0.00 | 73 | 1009.8 |
| 20260503003031 | 63 | 213 | 3.0 | 6.0 | 0.00 | 0.00 | 0.00 | 30 | 1019.4 |
| 20260503003018 | 68 | 138 | 0.0 | 0.0 | 0.00 | 0.00 | 0.00 | 71 | 1009.9 |
| 20260503001522 | 63 | 214 | 4.0 | 7.0 | 0.00 | 0.00 | 0.00 | 29 | 1019.5 |
| 20260503001517 | 69 | 169 | 0.0 | 0.0 | 0.00 | 0.00 | 0.00 | 71 | 1010.0 |
| 20260503000028 | 64 | 210 | 2.0 | 5.0 | 0.00 | 0.00 | 0.00 | 30 | 1019.7 |
| 20260503000016 | 69 | 198 | 0.0 | 0.0 | 0.00 | 0.00 | 0.00 | 72 | 1010.0 |
| 20260502234541 | 64 | 251 | 4.0 | 10.0 | 0.00 | 0.00 | 0.00 | 30 | 1019.9 |
| 20260502234515 | 69 | 146 | 0.0 | 0.0 | 0.00 | 0.00 | 0.00 | 72 | 1010.0 |
| 20260502233018 | 64 | 291 | 0.0 | 6.0 | 0.00 | 0.00 | 0.00 | 30 | 1019.7 |
| 20260502233015 | 69 | 140 | 0.0 | 0.0 | 0.00 | 0.00 | 0.00 | 71 | 1010.0 |
| 20260502231518 | 69 | 147 | 0.0 | 0.0 | 0.00 | 0.00 | 0.00 | 72 | 1010.2 |
| 20260502230017 | 63 | 312 | 4.0 | 13.0 | 0.00 | 0.00 | 0.00 | 29 | 1019.9 |
| 20260502230011 | 70 | 141 | 0.0 | 0.0 | 0.00 | 0.00 | 0.00 | 72 | 1010.4 |
| 20260502224517 | 64 | 280 | 2.0 | 8.0 | 0.00 | 0.00 | 0.00 | 32 | 1019.9 |
| 20260502224511 | 69 | 177 | 0.0 | 0.0 | 0.00 | 0.00 | 0.00 | 73 | 1010.7 |
| 20260502223033 | 64 | 25 | 1.0 | 8.0 | 0.00 | 0.00 | 0.00 | 30 | 1020.0 |
| 20260502223008 | 70 | 195 | 0.0 | 0.0 | 0.00 | 0.00 | 0.00 | 72 | 1011.0 |
| 20260502221513 | 64 | 342 | 7.0 | 11.0 | 0.00 | 0.00 | 0.00 | 30 | 1020.1 |
| 20260502221507 | 71 | 135 | 0.0 | 0.0 | 0.00 | 0.00 | 0.00 | 71 | 1011.2 |
| 20260502220010 | 64 | 227 | 3.0 | 8.0 | 0.00 | 0.00 | 0.00 | 29 | 1020.3 |
| 20260502220005 | 70 | 200 | 0.0 | 0.0 | 0.00 | 0.00 | 0.00 | 73 | 1011.4 |
| 20260502214509 | 63 | 299 | 5.0 | 10.0 | 0.00 | 0.00 | 0.00 | 30 | 1020.4 |
| 20260502214504 | 71 | 159 | 0.0 | 0.0 | 0.00 | 0.00 | 0.00 | 71 | 1011.6 |
| 20260502213008 | 63 | 333 | 4.0 | 9.0 | 0.00 | 0.00 | 0.00 | 29 | 1020.6 |
| 20260502213001 | 71 | 144 | 0.0 | 0.0 | 0.00 | 0.00 | 0.00 | 72 | 1011.9 |
| 20260502211606 | 63 | 291 | 6.0 | 10.0 | 0.00 | 0.00 | 0.00 | 30 | 1020.7 |
| 20260502211602 | 71 | 170 | 0.0 | 0.0 | 0.00 | 0.00 | 0.00 | 71 | 1012.1 |
| 20260502210058 | 71 | 158 | 0.0 | 0.0 | 0.00 | 0.00 | 0.00 | 72 | 1012.0 |
| 20260502210004 | 62 | 359 | 3.0 | 12.0 | 0.00 | 0.00 | 0.00 | 31 | 1021.0 |
| 20260502204557 | 70 | 140 | 0.0 | 0.0 | 0.00 | 0.00 | 0.00 | 73 | 1012.0 |
| 20260502204502 | 63 | 359 | 5.0 | 14.0 | 0.00 | 0.00 | 0.00 | 30 | 1021.0 |
| 20260502203116 | 62 | 240 | 2.0 | 6.0 | 0.00 | 0.00 | 0.00 | 31 | 1021.2 |
| 20260502203055 | 70 | 121 | 0.0 | 0.0 | 0.00 | 0.00 | 0.00 | 74 | 1012.0 |
| 20260502201559 | 70 | 151 | 0.0 | 0.0 | 0.00 | 0.00 | 0.00 | 75 | 1012.4 |
| 20260502200050 | 69 | 154 | 0.0 | 0.0 | 0.00 | 0.00 | 0.00 | 77 | 1012.4 |
| 20260502194557 | 62 | 242 | 5.0 | 13.0 | 0.00 | 0.00 | 0.00 | 31 | 1021.6 |
| 20260502194551 | 67 | 142 | 0.0 | 0.0 | 0.00 | 0.00 | 0.00 | 81 | 1012.6 |
| 20260502193056 | 61 | 107 | 2.0 | 6.0 | 0.00 | 0.00 | 0.00 | 32 | 1021.7 |
| 20260502191559 | 60 | 268 | 3.0 | 15.0 | 0.00 | 0.00 | 0.00 | 33 | 1021.9 |
| 20260502191548 | 65 | 139 | 0.0 | 0.0 | 0.00 | 0.00 | 0.00 | 84 | 1013.4 |
| 20260502190052 | 59 | 55 | 5.0 | 9.0 | 0.00 | 0.00 | 0.00 | 35 | 1022.0 |
| 20260502190038 | 64 | 145 | 0.0 | 0.0 | 0.00 | 0.00 | 0.00 | 84 | 1013.5 |
| 20260502184552 | 59 | 347 | 7.0 | 12.0 | 0.00 | 0.00 | 0.00 | 34 | 1022.1 |
| 20260502184536 | 64 | 149 | 0.0 | 0.0 | 0.00 | 0.00 | 0.00 | 86 | 1013.7 |
| 20260502183051 | 60 | 322 | 1.0 | 7.0 | 0.00 | 0.00 | 0.00 | 34 | 1022.4 |
| 20260502183035 | 63 | 156 | 0.0 | 0.0 | 0.00 | 0.00 | 0.00 | 86 | 1013.8 |
| 20260502181548 | 59 | 349 | 6.0 | 11.0 | 0.00 | 0.00 | 0.00 | 34 | 1022.7 |
| 20260502181532 | 63 | 157 | 0.0 | 0.0 | 0.00 | 0.00 | 0.00 | 87 | 1013.6 |
| 20260502163047 | 56 | 35 | 1.0 | 11.0 | 0.00 | 0.00 | 0.00 | 35 | 1023.5 |
| 20260502163035 | 61 | 156 | 0.0 | 0.0 | 0.00 | 0.00 | 0.00 | 91 | 1014.4 |
| 20260502161554 | 57 | 297 | 3.0 | 9.0 | 0.00 | 0.00 | 0.00 | 37 | 1023.5 |
| 20260502161527 | 61 | 164 | 0.0 | 0.0 | 0.00 | 0.00 | 0.00 | 91 | 1014.3 |
| 20260502151527 | 54 | 354 | 3.0 | 9.0 | 0.00 | 0.00 | 0.00 | 47 | 1023.6 |
| 20260502151521 | 60 | 170 | 0.0 | 0.0 | 0.00 | 0.00 | 0.00 | 92 | 1014.1 |
| 20260502123009 | 60 | 179 | 0.0 | 0.0 | 0.00 | 0.00 | 0.00 | 89 | 1013.3 |
| 20260502121509 | 60 | 182 | 0.0 | 0.0 | 0.00 | 0.00 | 0.00 | 89 | 1013.0 |
| 20260502121506 | 39 | 320 | 2.0 | 5.0 | 0.00 | 0.00 | 0.00 | 78 | 1022.9 |
| 20260502114507 | 60 | 182 | 0.0 | 0.0 | 0.00 | 0.00 | 0.00 | 89 | 1012.8 |
| 20260502114504 | 37 | 359 | 0.0 | 1.0 | 0.00 | 0.00 | 0.00 | 83 | 1022.6 |
| 20260502113006 | 60 | 182 | 0.0 | 0.0 | 0.00 | 0.00 | 0.00 | 89 | 1012.7 |
| 20260502113001 | 37 | 359 | 0.0 | 0.0 | 0.00 | 0.00 | 0.00 | 82 | 1022.3 |
| 20260502111558 | 37 | 359 | 0.0 | 0.0 | 0.00 | 0.00 | 0.00 | 82 | 1022.1 |
| 20260502111505 | 60 | 192 | 0.0 | 0.0 | 0.00 | 0.00 | 0.00 | 89 | 1012.8 |
| 20260502110058 | 37 | 359 | 0.0 | 1.0 | 0.00 | 0.00 | 0.00 | 82 | 1022.0 |
| 20260502110005 | 60 | 197 | 0.0 | 0.0 | 0.00 | 0.00 | 0.00 | 89 | 1012.8 |
| 20260502104556 | 38 | 359 | 0.0 | 0.0 | 0.00 | 0.00 | 0.00 | 81 | 1022.0 |
| 20260502104504 | 60 | 197 | 0.0 | 0.0 | 0.00 | 0.00 | 0.00 | 89 | 1012.6 |
| 20260502103054 | 38 | 359 | 0.0 | 0.0 | 0.00 | 0.00 | 0.00 | 81 | 1021.8 |
| 20260502103010 | 60 | 197 | 0.0 | 0.0 | 0.00 | 0.00 | 0.00 | 89 | 1012.6 |
| 20260502101553 | 38 | 335 | 0.0 | 0.0 | 0.00 | 0.00 | 0.00 | 80 | 1021.8 |
| 20260502101502 | 60 | 197 | 0.0 | 0.0 | 0.00 | 0.00 | 0.00 | 89 | 1012.4 |
| 20260502071527 | 44 | 332 | 0.0 | 1.0 | 0.00 | 0.00 | 0.00 | 64 | 1021.2 |
| 20260502070043 | 61 | 197 | 0.0 | 0.0 | 0.00 | 0.00 | 0.00 | 87 | 1013.4 |
| 20260502070023 | 46 | 332 | 0.0 | 4.0 | 0.00 | 0.00 | 0.00 | 56 | 1021.4 |
| 20260502064544 | 61 | 197 | 0.0 | 0.0 | 0.00 | 0.00 | 0.00 | 87 | 1013.4 |
| 20260502064521 | 46 | 305 | 1.0 | 5.0 | 0.00 | 0.00 | 0.00 | 53 | 1021.4 |
| 20260502063053 | 61 | 197 | 0.0 | 0.0 | 0.00 | 0.00 | 0.00 | 86 | 1013.2 |
| 20260502063021 | 47 | 281 | 2.0 | 5.0 | 0.00 | 0.00 | 0.00 | 54 | 1021.4 |
| 20260502061542 | 62 | 197 | 0.0 | 0.0 | 0.00 | 0.00 | 0.00 | 86 | 1013.3 |
| 20260502061520 | 46 | 310 | 2.0 | 4.0 | 0.00 | 0.00 | 0.00 | 55 | 1021.4 |
| 20260502060043 | 62 | 197 | 0.0 | 0.0 | 0.00 | 0.00 | 0.00 | 86 | 1013.2 |
| 20260502060019 | 46 | 303 | 1.0 | 3.0 | 0.00 | 0.00 | 0.00 | 57 | 1021.4 |
| 20260502054540 | 62 | 197 | 0.0 | 0.0 | 0.00 | 0.00 | 0.00 | 86 | 1013.3 |
| 20260502054513 | 48 | 335 | 0.0 | 2.0 | 0.00 | 0.00 | 0.00 | 54 | 1021.4 |
| 20260502053042 | 62 | 197 | 0.0 | 0.0 | 0.00 | 0.00 | 0.00 | 85 | 1013.4 |
| 20260502053010 | 48 | 33 | 0.0 | 3.0 | 0.00 | 0.00 | 0.00 | 51 | 1021.3 |
| 20260502051539 | 62 | 197 | 0.0 | 0.0 | 0.00 | 0.00 | 0.00 | 85 | 1013.4 |
| 20260502051508 | 49 | 337 | 0.0 | 5.0 | 0.00 | 0.00 | 0.00 | 51 | 1021.3 |
| 20260502050039 | 63 | 197 | 0.0 | 0.0 | 0.00 | 0.00 | 0.00 | 84 | 1013.4 |
| 20260502050004 | 50 | 330 | 2.0 | 6.0 | 0.00 | 0.00 | 0.00 | 48 | 1021.3 |
| 20260502044537 | 63 | 197 | 0.0 | 0.0 | 0.00 | 0.00 | 0.00 | 84 | 1013.3 |
| 20260502044505 | 50 | 347 | 1.0 | 5.0 | 0.00 | 0.00 | 0.00 | 48 | 1021.2 |
| 20260502043038 | 63 | 197 | 0.0 | 0.0 | 0.00 | 0.00 | 0.00 | 84 | 1013.2 |
| 20260502043004 | 51 | 337 | 2.0 | 5.0 | 0.00 | 0.00 | 0.00 | 47 | 1021.0 |
| 20260502041538 | 63 | 197 | 0.0 | 0.0 | 0.00 | 0.00 | 0.00 | 84 | 1013.0 |
| 20260502041503 | 51 | 326 | 3.0 | 8.0 | 0.00 | 0.00 | 0.00 | 46 | 1021.1 |
| 20260502040037 | 64 | 197 | 0.0 | 0.0 | 0.00 | 0.00 | 0.00 | 83 | 1012.6 |
| 20260502040003 | 52 | 343 | 3.0 | 6.0 | 0.00 | 0.00 | 0.00 | 45 | 1021.0 |
| 20260502034536 | 64 | 197 | 0.0 | 0.0 | 0.00 | 0.00 | 0.00 | 81 | 1012.5 |
| 20260502034503 | 52 | 324 | 5.0 | 9.0 | 0.00 | 0.00 | 0.00 | 45 | 1020.9 |
| 20260502033043 | 65 | 197 | 0.0 | 0.0 | 0.00 | 0.00 | 0.00 | 80 | 1012.3 |
| 20260502033001 | 53 | 325 | 2.0 | 4.0 | 0.00 | 0.00 | 0.00 | 45 | 1020.7 |
| 20260502031535 | 65 | 195 | 0.0 | 0.0 | 0.00 | 0.00 | 0.00 | 79 | 1012.1 |
| 20260502031501 | 54 | 316 | 1.0 | 4.0 | 0.00 | 0.00 | 0.00 | 43 | 1020.5 |
| 20260502030035 | 66 | 195 | 0.0 | 0.0 | 0.00 | 0.00 | 0.00 | 78 | 1012.1 |
| 20260502030002 | 54 | 20 | 3.0 | 8.0 | 0.00 | 0.00 | 0.00 | 42 | 1020.4 |
| 20260502024536 | 67 | 189 | 0.0 | 0.0 | 0.00 | 0.00 | 0.00 | 77 | 1011.8 |
| 20260502024502 | 55 | 337 | 3.0 | 6.0 | 0.00 | 0.00 | 0.00 | 43 | 1020.0 |
| 20260502023100 | 55 | 354 | 4.0 | 9.0 | 0.00 | 0.00 | 0.00 | 41 | 1019.6 |
| 20260502023035 | 67 | 153 | 0.0 | 0.0 | 0.00 | 0.00 | 0.00 | 78 | 1011.6 |